Terminal Aerodrome Forecast
Issued by NWS Austin/San Antonio, TX

Home | Current Version | Previous Version | Text Only | Print | Product List | Glossary On
Versions: 1 2 3 4 5 6 7 8 9 10 11 12 13 14 15 16 17 18
000
FTUS44 KEWX 292300
TAFSAT
TAF
KSAT 292339Z 3000/3106 14005KT P6SM SCT040 BKN250
     FM300100 03015KT P6SM FEW030 BKN100
     FM301300 02012KT P6SM BKN025 OVC100
     FM302200 09005KT P6SM OVC020=

USA.gov is the U.S. government's official web portal to all federal, state and local government web resources and services.